TimeCST,TemperatureF,Dew PointF,Humidity,Sea Level PressureIn,VisibilityMPH,Wind Direction,Wind SpeedMPH,Gust SpeedMPH,PrecipitationIn,Events,Conditions,WindDirDegrees,DateUTC
12:53 AM,26.1,23.0,88,30.19,10.0,NW,6.9,-,N/A,,Overcast,320,2013-02-02 06:53:00
1:53 AM,25.0,23.0,92,30.19,10.0,WNW,4.6,-,N/A,,Mostly Cloudy,290,2013-02-02 07:53:00
2:53 AM,23.0,21.2,93,30.13,10.0,NNW,3.5,-,N/A,,Clear,330,2013-02-02 08:53:00
3:53 AM,27.0,24.1,89,30.20,10.0,Calm,Calm,-,N/A,,Partly Cloudy,0,2013-02-02 09:53:00
4:53 AM,30.0,26.1,85,30.19,10.0,West,9.2,-,N/A,,Clear,280,2013-02-02 10:53:00
5:53 AM,24.1,21.9,91,30.22,10.0,NW,4.6,-,N/A,,Clear,310,2013-02-02 11:53:00
6:53 AM,25.0,21.9,88,30.24,10.0,WNW,4.6,-,N/A,,Clear,300,2013-02-02 12:53:00
7:53 AM,28.0,25.0,88,30.25,10.0,West,8.1,-,N/A,,Clear,270,2013-02-02 13:53:00
8:53 AM,30.9,27.0,85,30.26,10.0,West,8.1,-,N/A,,Clear,280,2013-02-02 14:53:00
9:53 AM,36.0,28.0,73,30.26,10.0,West,12.7,-,N/A,,Clear,280,2013-02-02 15:53:00
10:53 AM,42.1,28.0,58,30.26,10.0,WNW,13.8,21.9,N/A,,Clear,300,2013-02-02 16:53:00
11:53 AM,48.9,25.0,39,30.26,10.0,WNW,18.4,25.3,N/A,,Clear,290,2013-02-02 17:53:00
12:53 PM,51.1,21.9,32,30.23,10.0,NW,24.2,32.2,N/A,,Clear,310,2013-02-02 18:53:00
1:53 PM,52.0,21.0,30,30.21,10.0,NW,27.6,38.0,N/A,,Clear,310,2013-02-02 19:53:00
2:53 PM,53.1,21.0,29,30.20,10.0,WNW,28.8,40.3,N/A,,Clear,300,2013-02-02 20:53:00
3:53 PM,53.1,19.0,26,30.19,10.0,NW,32.2,42.6,N/A,,Clear,320,2013-02-02 21:53:00
4:53 PM,51.1,17.1,26,30.21,10.0,NW,29.9,41.4,N/A,,Clear,320,2013-02-02 22:53:00
5:53 PM,46.0,19.0,34,30.24,10.0,NW,20.7,27.6,N/A,,Clear,310,2013-02-02 23:53:00
6:53 PM,39.9,19.9,45,30.26,10.0,WNW,13.8,-,N/A,,Clear,300,2013-02-03 00:53:00
7:53 PM,34.0,19.9,56,30.28,10.0,NW,6.9,-,N/A,,Clear,320,2013-02-03 01:53:00
8:53 PM,32.0,21.0,64,30.29,10.0,NNW,8.1,-,N/A,,Clear,330,2013-02-03 02:53:00
9:53 PM,27.0,19.9,75,30.31,10.0,NNW,4.6,-,N/A,,Clear,330,2013-02-03 03:53:00
10:53 PM,24.1,19.0,81,30.32,10.0,North,5.8,-,N/A,,Clear,350,2013-02-03 04:53:00
11:53 PM,21.9,18.0,85,30.31,10.0,NW,6.9,-,N/A,,Clear,320,2013-02-03 05:53:00